Mateusz Blaszczykowski

Scout - Lech
22 Feb 2028
Dienstag
Verarbeitung

Persönlichkeit

Anpassungsfähigkeit (12) Ehrgeiz (6) Kontroverse (3) Loyalität (9) Druck (11) Professionalität (2) Fairness (14) Temperament (6)

Profil

Trainerstil Demokratisch
Lizenz Nationale B
Entschlossenheit 6
Menschenführung 9
Motivation 7
Disziplin 5
Arbeitszufriedenheit
100%
Ermüdung
0%
Rolle Scout
Gehalt 41.9K p/W
Vertrag 14.03.2028

Leistung

Verhalten Gut
Trainingseffektivität
41%
Spielerentwicklung
45%
Verletzungsprävention
45%
Taktische Umsetzung
30%

Letzte Ereignisse

Vertragsverhandlung begonnen jetzt
Nahm an einer Scouting-Besprechung teil jetzt
Vertragsverhandlung begonnen 7T her
Vertragsverhandlung begonnen 7T her
Vertragsverhandlung begonnen 7T her
Vertragsverhandlung begonnen 7T her
Vertragsverhandlung begonnen 7T her
Vertragsverhandlung begonnen 7T her

Aktuell beobachtet

75
Spieler Verein Status Fähigkeit Vertrauen Beobachtet Zuletzt beobachtet Letzte Stimme
Rajmund Molnár Pogon Aktiv 122 / 109 55% 1 31.01.2028 -
Sayfallah Ltaief Cracovia Aktiv 127 / 123 55% 1 24.01.2028 -
Peter Federico Gornik Zabrze Aktiv 132 / 127 55% 1 01.01.2028 -
Lucas Sanabria LA Galaxy Aktiv 142 / 140 40% 1 31.12.2027 -
Alphadjo Cissé Como Aktiv 132 / 139 40% 1 09.08.2027 -
Assane Diao Lazio Aktiv 138 / 147 40% 1 09.08.2027 -
Wiktor Długosz Korona Aktiv 120 / 124 51% 1 01.06.2027 -
Oli McBurnie Hull City Aktiv 145 / 142 40% 1 31.05.2027 -
Bertrand Traoré Sunderland Aktiv 145 / 134 40% 1 31.05.2027 -
Derensili Sanches Fernandes Huddersfield Town Aktiv 110 / 131 40% 3 30.05.2027 -
Darlin Yongwa Norwich City Aktiv 132 / 130 40% 1 30.05.2027 -
Million Manhoef Stoke City Aktiv 123 / 122 40% 1 25.05.2027 -
Tom Fellows Southampton Aktiv 150 / 137 40% 1 23.05.2027 -
Ilyas Ansah Hull City Aktiv 145 / 124 40% 1 23.05.2027 -
Kellen Fisher Norwich City Aktiv 129 / 111 40% 1 22.05.2027 -
Ethan Galbraith Swansea City Aktiv 121 / 135 40% 1 22.05.2027 -
Giorgi Chakvetadze Watford Aktiv 113 / 133 40% 2 20.05.2027 -
Welington Southampton Aktiv 120 / 131 40% 1 17.05.2027 -
Kasey McAteer Ipswich Town Aktiv 146 / 131 40% 3 16.05.2027 -
Bosun Lawal Stoke City Aktiv 109 / 134 40% 1 14.05.2027 -
Milan van Ewijk Mansfield Town Aktiv 114 / 133 40% 1 14.05.2027 -
Andre Brooks Sheffield United Aktiv 120 / 120 40% 2 12.05.2027 -
Koki Saito Queens Park Rangers Aktiv 133 / 112 40% 1 12.05.2027 -
Stanley Mills Oxford United Aktiv 114 / 113 40% 2 11.05.2027 -
Tyler Goodrham Oxford United Aktiv 126 / 114 40% 3 11.05.2027 -
Jack McGlynn Stoke City Aktiv 142 / 135 40% 3 10.05.2027 -
David Turnbull Cardiff City Aktiv 131 / 113 40% 1 09.05.2027 -
Isaac Price West Bromwich Albion Aktiv 146 / 138 40% 2 02.05.2027 -
Othmane Maamma Watford Aktiv 113 / 127 40% 2 01.05.2027 -
Harry Clarke Preston Aktiv 128 / 137 40% 2 30.04.2027 -
Nicolas Madsen Queens Park Rangers Aktiv 140 / 143 40% 1 30.04.2027 -
Jason Knight Bristol City Aktiv 113 / 138 40% 1 28.04.2027 -
Leif Davis Ipswich Town Aktiv 150 / 140 40% 1 20.04.2027 -
Tomáš Rigo Stoke City Aktiv 136 / 118 40% 1 18.04.2027 -
Max Bird Birmingham Aktiv 114 / 132 40% 4 16.04.2027 -
Tommy Conway Middlesbrough Aktiv 128 / 140 40% 1 16.04.2027 -
Scott Twine Bristol City Aktiv 111 / 132 40% 1 12.04.2027 -
Isaiah Jones Luton Town Aktiv 107 / 115 40% 2 06.04.2027 -
Kwadwo Baah Watford Aktiv 145 / 123 40% 1 05.04.2027 -
Roberto Massimo Wisla Krakow Aktiv 108 / 113 40% 1 05.04.2027 -
Marquinhos Spartak Moscow Aktiv 137 / 121 40% 1 29.03.2027 -
Jack Currie Oxford United Aktiv 109 / 135 40% 1 29.03.2027 -
Joe Gelhardt Hull City Aktiv 138 / 144 40% 2 28.03.2027 -
Oston O'runov Persepolis Aktiv 128 / 133 40% 1 25.03.2027 -
Kwame Poku Queens Park Rangers Aktiv 113 / 129 40% 1 24.03.2027 -
Tyrese Campbell Sheffield United Aktiv 125 / 112 40% 1 23.03.2027 -
Lewis Bate Stockport County Aktiv 112 / 111 40% 1 23.03.2027 -
Alex Robertson Cardiff City Aktiv 103 / 126 40% 1 21.03.2027 -
Mandla Erasmus SuperSport United Aktiv 128 / 118 40% 1 17.03.2027 -
Sergio Lozano Jagiellonia Aktiv 118 / 116 40% 1 16.03.2027 -
Aidan Morris Middlesbrough Aktiv 123 / 124 40% 1 03.01.2027 -
Dara O'Shea Ipswich Town Aktiv 143 / 142 40% 1 30.12.2026 Mehr Infos nötig
Filip Kaloč Ludogorets Aktiv 114 / 126 40% 1 26.12.2026 -
Yacine Adli Al-Shabab Aktiv 151 / 137 40% 1 22.12.2026 -
Álex Centelles Levski Aktiv 122 / 127 40% 1 22.12.2026 -
Victor Parada Spartak Moscow Aktiv 136 / 117 40% 2 20.12.2026 -
Tamar Svetlin Korona Aktiv 109 / 123 40% 2 06.12.2026 -
Mohamed Ali Ben Romdhane Al Ahly Aktiv 138 / 140 40% 1 04.12.2026 -
Leandro Lozano Boca Juniors Aktiv 125 / 121 40% 1 04.12.2026 -
Kacper Urbański Gornik Zabrze Aktiv 113 / 123 40% 2 01.12.2026 -
Malthe Højholt Gornik Zabrze Aktiv 112 / 126 40% 2 30.11.2026 -
Bradley Tau SuperSport United Aktiv 119 / 132 40% 1 30.11.2026 -
Facundo Mura Inter Miami CF Aktiv 128 / 114 40% 1 26.11.2026 -
Francisco Álvarez Argentinos Juniors Aktiv 142 / 132 40% 1 24.11.2026 -
Pedro Ramírez Deportivo Riestra Aktiv 126 / 104 40% 1 18.11.2026 -
Nicolás Romero Minnesota United FC Aktiv 137 / 115 40% 1 18.11.2026 -
Damián Fernández Defensa y Justicia Aktiv 131 / 133 40% 1 17.11.2026 -
Martín Garay Tigre Aktiv 120 / 110 40% 1 16.11.2026 -
Santiago Núñez Estudiantes Aktiv 123 / 120 40% 1 14.11.2026 -
Bryan Ramírez FC Cincinnati Aktiv 125 / 134 40% 1 13.11.2026 -
Lasse Berg Johnsen Sporting Kansas City Aktiv 125 / 120 40% 1 13.11.2026 -
Gustavo Mantuan Zenit Aktiv 130 / 126 40% 1 03.11.2026 -
Samú Al-Nassr Aktiv 154 / 135 40% 1 03.11.2026 Mehr Infos nötig
Jakub Czerwiński Piast Aktiv 117 / 108 51% 1 17.08.2026 -
Karim Adeyemi Barcelona Aktiv 154 / 148 40% 1 01.08.2026 -